Domov               UVHVVR             MKGP            O straneh              
ZDRAVSTVENO VARSTVO RASTLIN
  MREŽA AGROMET. POSTAJ
 ► PROGNOSTIČNA OBVESTILA
AGROMETEOROLOŠKI PODATKI -
ARSO
OBVLADOVANJE TVEGANJ ZARADI
NEUGODNIH VREMENSKIH RAZMER
  ► NARAVNE NESREČE
  ► SUŠA/MOČA
  ► NAMAKANJE
  ► ŽLED (gozdarstvo)
KARTOGRAFSKI PRIKAZI
SPLETNE POVEZAVE
PROJEKTI IN PUBLIKACIJE

AGROMETEOROLOŠKA MREŽA: VREMENSKE POSTAJE IN FENOLOŠKA OPAZOVANJA

Pregled podatkov za lokacijo Sremič, meteorološka postaja 49592

Pregled senzorjev na lokaciji

ID Ime Zadnja
vrednost
Datum
zadnje
spremembe
Tip
senzorja
3945 Relativna vlaga 2 m (% RH) 64,32 % RH 24.6.2017 21:00 Generic 0 - 100 %
3946 Temperatura 2 m ( °C) 25,8 °C 24.6.2017 21:00 Generic -40 - +60 °C
3947 Omočenost lista (U) 0 U 24.6.2017 21:00 A730WET
3948 Padavine 0.2 mm (mm) 0 mm 24.6.2017 21:00 Generic 0.2 mm

Pregled podatkov zadnjih 24 ur

Zap.
št.
Datum in čas Sremič
Omočenost
lista
Padavine
0.2
mm
Relativna
vlaga
2
m
Temperatura
2
m
0 24.6.2017 20:00 0 0 64,32 25,8
1 24.6.2017 19:30 0 0 62,7 26,09
2 24.6.2017 19:00 0 0 57,67 28,12
3 24.6.2017 18:30 0 0 54,58 29,08
4 24.6.2017 18:00 0 0 55,21 29,08
5 24.6.2017 17:30 0 0 55,23 28,24
6 24.6.2017 17:00 0 0 58,55 26,83
7 24.6.2017 16:30 0 0 59,71 26,61
8 24.6.2017 16:00 0 0 57,72 27,1
9 24.6.2017 15:30 0 0 54,25 28,18
10 24.6.2017 15:00 0 0 51,36 29,3
11 24.6.2017 14:30 0 0 55,51 27,56
12 24.6.2017 14:00 0 0 51,71 28,84
13 24.6.2017 13:30 0 0 47,7 30,38
14 24.6.2017 13:00 0 0 48,94 29,85
15 24.6.2017 12:30 0 0 50,19 29,97
16 24.6.2017 12:00 0 0 52,2 28,87
17 24.6.2017 11:30 0 0 54,98 28,17
18 24.6.2017 11:00 0 0 54,56 27,57
19 24.6.2017 10:30 0 0 57,06 26,49
20 24.6.2017 10:00 0 0 59,87 26,1
21 24.6.2017 09:30 0 0 63,97 25,4
22 24.6.2017 09:00 0 0 57,27 25,87
23 24.6.2017 08:30 0 0 54,67 25,47
24 24.6.2017 08:00 5 0 59,02 23,74
25 24.6.2017 07:30 0 0 60,16 22,97
26 24.6.2017 07:00 0 0 63,59 22,32
27 24.6.2017 06:30 0 0 69,53 21,47
28 24.6.2017 06:00 0 0 73,25 21,33
29 24.6.2017 05:30 0 0 74,75 21,46
30 24.6.2017 05:00 0 0 79,38 20,93
31 24.6.2017 04:30 0 0 79,42 21,02
32 24.6.2017 04:00 0 0 78,13 21,31
33 24.6.2017 03:30 0 0 74,57 21,97
34 24.6.2017 03:00 0 0 74,66 21,95
35 24.6.2017 02:30 0 0 74,9 21,91
36 24.6.2017 02:00 0 0 74,47 21,87
37 24.6.2017 01:30 0 0 71,95 22,24
38 24.6.2017 01:00 0 0 72,3 22,12
39 24.6.2017 00:30 0 0 68,31 22,53
40 24.6.2017 00:00 0 0 61,46 23,43
41 23.6.2017 23:30 0 0 58,89 23,84
42 23.6.2017 23:00 0 0 56,76 24,03
© 2011 Ministrstvo za kmetijstvo, gozdarstvo in prehrano. Vse pravice pridržane.